Year,Month,Day,Hour,Minute,Value (Times are PST for temperature in C)
2009,12,08,00,00,-4.80
2009,12,08,00,01,-4.80
2009,12,08,00,02,-4.80
2009,12,08,00,03,-4.80
2009,12,08,00,04,-4.70
2009,12,08,00,05,-4.70
2009,12,08,00,06,-4.70
2009,12,08,00,07,-4.70
2009,12,08,00,08,-4.70
2009,12,08,00,09,-4.70
2009,12,08,00,10,-4.60
2009,12,08,00,11,-4.60
2009,12,08,00,12,-4.60
2009,12,08,00,13,-4.60
2009,12,08,00,14,-4.50
2009,12,08,00,15,-4.50
2009,12,08,00,16,-4.50
2009,12,08,00,17,-4.50
2009,12,08,00,18,-4.50
2009,12,08,00,19,-4.50
2009,12,08,00,20,-4.50
2009,12,08,00,21,-4.50
2009,12,08,00,22,-4.50
2009,12,08,00,23,-4.50
2009,12,08,00,24,-4.60
2009,12,08,00,25,-4.60
2009,12,08,00,26,-4.60
2009,12,08,00,27,-4.60
2009,12,08,00,28,-4.60
2009,12,08,00,29,-4.60
2009,12,08,00,30,-4.60
2009,12,08,00,31,-4.60
2009,12,08,00,32,-4.60
2009,12,08,00,33,-4.60
2009,12,08,00,34,-4.50
2009,12,08,00,35,-4.50
2009,12,08,00,36,-4.50
2009,12,08,00,37,-4.50
2009,12,08,00,38,-4.50
2009,12,08,00,39,-4.50
2009,12,08,00,40,-4.50
2009,12,08,00,41,-4.50
2009,12,08,00,42,-4.50
2009,12,08,00,43,-4.50
2009,12,08,00,44,-4.40
2009,12,08,00,45,-4.40
2009,12,08,00,46,-4.40
2009,12,08,00,47,-4.40
2009,12,08,00,48,-4.40
2009,12,08,00,49,-4.40
2009,12,08,00,50,-4.40
2009,12,08,00,51,-4.40
2009,12,08,00,52,-4.40
2009,12,08,00,53,-4.40
2009,12,08,00,54,-4.40
2009,12,08,00,55,-4.40
2009,12,08,00,56,-4.30
2009,12,08,00,57,-4.30
2009,12,08,00,58,-4.30
2009,12,08,00,59,-4.30
2009,12,08,01,00,-4.20
2009,12,08,01,01,-4.20
2009,12,08,01,02,-4.20
2009,12,08,01,03,-4.20
2009,12,08,01,04,-4.20
2009,12,08,01,05,-4.20
2009,12,08,01,06,-4.20
2009,12,08,01,07,-4.20
2009,12,08,01,08,-4.20
2009,12,08,01,09,-4.20
2009,12,08,01,10,-4.20
2009,12,08,01,11,-4.20
2009,12,08,01,12,-4.20
2009,12,08,01,13,-4.20
2009,12,08,01,14,-4.10
2009,12,08,01,15,-4.10
2009,12,08,01,16,-4.10
2009,12,08,01,17,-4.10
2009,12,08,01,18,-4.10
2009,12,08,01,19,-4.10
2009,12,08,01,20,-4.10
2009,12,08,01,21,-4.10
2009,12,08,01,22,-4.10
2009,12,08,01,23,-4.10
2009,12,08,01,24,-4.10
2009,12,08,01,25,-4.10
2009,12,08,01,26,-4.10
2009,12,08,01,27,-4.10
2009,12,08,01,28,-4.10
2009,12,08,01,29,-4.10
2009,12,08,01,30,-4.10
2009,12,08,01,31,-4.10
2009,12,08,01,32,-4.10
2009,12,08,01,33,-4.10
2009,12,08,01,34,-4.10
2009,12,08,01,35,-4.10
2009,12,08,01,36,-4.10
2009,12,08,01,37,-4.10
2009,12,08,01,38,-4.10
2009,12,08,01,39,-4.10
2009,12,08,01,40,-4.10
2009,12,08,01,41,-4.10
2009,12,08,01,42,-4.10
2009,12,08,01,43,-4.10
2009,12,08,01,44,-4.10
2009,12,08,01,45,-4.10
2009,12,08,01,46,-4.10
2009,12,08,01,47,-4.10
2009,12,08,01,48,-4.20
2009,12,08,01,49,-4.20
2009,12,08,01,50,-4.20
2009,12,08,01,51,-4.20
2009,12,08,01,52,-4.20
2009,12,08,01,53,-4.20
2009,12,08,01,54,-4.20
2009,12,08,01,55,-4.20
2009,12,08,01,56,-4.20
2009,12,08,01,57,-4.20
2009,12,08,01,58,-4.20
2009,12,08,01,59,-4.20
2009,12,08,02,00,-4.20
2009,12,08,02,01,-4.20
2009,12,08,02,02,-4.20
2009,12,08,02,03,-4.20
2009,12,08,02,04,-4.20
2009,12,08,02,05,-4.20
2009,12,08,02,06,-4.20
2009,12,08,02,07,-4.20
2009,12,08,02,08,-4.20
2009,12,08,02,09,-4.20
2009,12,08,02,10,-4.20
2009,12,08,02,11,-4.20
2009,12,08,02,12,-4.20
2009,12,08,02,13,-4.20
2009,12,08,02,14,-4.20
2009,12,08,02,15,-4.20
2009,12,08,02,16,-4.20
2009,12,08,02,17,-4.20
2009,12,08,02,18,-4.20
2009,12,08,02,19,-4.20
2009,12,08,02,20,-4.10
2009,12,08,02,21,-4.10
2009,12,08,02,22,-4.10
2009,12,08,02,23,-4.10
2009,12,08,02,24,-4.00
2009,12,08,02,25,-4.00
2009,12,08,02,26,-4.00
2009,12,08,02,27,-4.00
2009,12,08,02,28,-4.00
2009,12,08,02,29,-4.00
2009,12,08,02,30,-4.10
2009,12,08,02,31,-4.10
2009,12,08,02,32,-4.10
2009,12,08,02,33,-4.10
2009,12,08,02,34,-4.10
2009,12,08,02,35,-4.10
2009,12,08,02,36,-4.10
2009,12,08,02,37,-4.10
2009,12,08,02,38,-4.00
2009,12,08,02,39,-4.00
2009,12,08,02,40,-4.00
2009,12,08,02,41,-4.00
2009,12,08,02,42,-4.00
2009,12,08,02,43,-4.00
2009,12,08,02,44,-4.10
2009,12,08,02,45,-4.10
2009,12,08,02,46,-4.10
2009,12,08,02,47,-4.10
2009,12,08,02,48,-4.20
2009,12,08,02,49,-4.10
2009,12,08,02,50,-4.10
2009,12,08,02,51,-4.10
2009,12,08,02,52,-4.10
2009,12,08,02,53,-4.10
2009,12,08,02,54,-4.10
2009,12,08,02,55,-4.10
2009,12,08,02,56,-4.10
2009,12,08,02,57,-4.00
2009,12,08,02,58,-4.00
2009,12,08,02,59,-4.00
2009,12,08,03,00,-4.00
2009,12,08,03,01,-4.00
2009,12,08,03,02,-4.00
2009,12,08,03,03,-4.00
2009,12,08,03,04,-4.00
2009,12,08,03,05,-4.00
2009,12,08,03,06,-4.00
2009,12,08,03,07,-4.00
2009,12,08,03,08,-4.00
2009,12,08,03,09,-4.00
2009,12,08,03,10,-4.00
2009,12,08,03,11,-4.00
2009,12,08,03,12,-4.00
2009,12,08,03,13,-4.00
2009,12,08,03,14,-3.90
2009,12,08,03,15,-3.90
2009,12,08,03,16,-3.90
2009,12,08,03,17,-3.90
2009,12,08,03,18,-3.90
2009,12,08,03,19,-3.80
2009,12,08,03,20,-3.80
2009,12,08,03,21,-3.80
2009,12,08,03,22,-3.80
2009,12,08,03,23,-3.80
2009,12,08,03,24,-3.80
2009,12,08,03,25,-3.80
2009,12,08,03,26,-3.80
2009,12,08,03,27,-3.90
2009,12,08,03,28,-3.90
2009,12,08,03,29,-3.90
2009,12,08,03,30,-3.90
2009,12,08,03,31,-3.90
2009,12,08,03,32,-3.90
2009,12,08,03,33,-3.90
2009,12,08,03,34,-3.90
2009,12,08,03,35,-4.00
2009,12,08,03,36,-4.00
2009,12,08,03,37,-4.00
2009,12,08,03,38,-4.00
2009,12,08,03,39,-4.00
2009,12,08,03,40,-4.10
2009,12,08,03,41,-4.10
2009,12,08,03,42,-4.10
2009,12,08,03,43,-4.10
2009,12,08,03,44,-4.20
2009,12,08,03,45,-4.20
2009,12,08,03,46,-4.30
2009,12,08,03,47,-4.30
2009,12,08,03,48,-4.40
2009,12,08,03,49,-4.40
2009,12,08,03,50,-4.50
2009,12,08,03,51,-4.60
2009,12,08,03,52,-4.70
2009,12,08,03,53,-4.70
2009,12,08,03,54,-4.80
2009,12,08,03,55,-4.80
2009,12,08,03,56,-4.90
2009,12,08,03,57,-4.90
2009,12,08,03,58,-5.00
2009,12,08,03,59,-5.00
2009,12,08,04,00,-5.10
2009,12,08,04,01,-5.20
2009,12,08,04,02,-5.20
2009,12,08,04,03,-5.20
2009,12,08,04,04,-5.30
2009,12,08,04,05,-5.30
2009,12,08,04,06,-5.30
2009,12,08,04,07,-5.30
2009,12,08,04,08,-5.30
2009,12,08,04,09,-5.40
2009,12,08,04,10,-5.40
2009,12,08,04,11,-5.40
2009,12,08,04,12,-5.50
2009,12,08,04,13,-5.50
2009,12,08,04,14,-5.50
2009,12,08,04,15,-5.50
2009,12,08,04,16,-5.50
2009,12,08,04,17,-5.50
2009,12,08,04,18,-5.50
2009,12,08,04,19,-5.40
2009,12,08,04,20,-5.40
2009,12,08,04,21,-5.40
2009,12,08,04,22,-5.40
2009,12,08,04,23,-5.30
2009,12,08,04,24,-5.30
2009,12,08,04,25,-5.30
2009,12,08,04,26,-5.20
2009,12,08,04,27,-5.20
2009,12,08,04,28,-5.10
2009,12,08,04,29,-5.10
2009,12,08,04,30,-5.00
2009,12,08,04,31,-5.00
2009,12,08,04,32,-4.90
2009,12,08,04,33,-4.90
2009,12,08,04,34,-4.80
2009,12,08,04,35,-4.80
2009,12,08,04,36,-4.70
2009,12,08,04,37,-4.70
2009,12,08,04,38,-4.70
2009,12,08,04,39,-4.70
2009,12,08,04,40,-4.70
2009,12,08,04,41,-4.70
2009,12,08,04,42,-4.60
2009,12,08,04,43,-4.60
2009,12,08,04,44,-4.60
2009,12,08,04,45,-4.60
2009,12,08,04,46,-4.60
2009,12,08,04,47,-4.50
2009,12,08,04,48,-4.50
2009,12,08,04,49,-4.50
2009,12,08,04,50,-4.50
2009,12,08,04,51,-4.50
2009,12,08,04,52,-4.50
2009,12,08,04,53,-4.50
2009,12,08,04,54,-4.50
2009,12,08,04,55,-4.50
2009,12,08,04,56,-4.50
2009,12,08,04,57,-4.50
2009,12,08,04,58,-4.50
2009,12,08,04,59,-4.50
2009,12,08,05,00,-4.50
2009,12,08,05,01,-4.50
2009,12,08,05,02,-4.50
2009,12,08,05,03,-4.60
2009,12,08,05,04,-4.60
2009,12,08,05,05,-4.70
2009,12,08,05,06,-4.70
2009,12,08,05,07,-4.80
2009,12,08,05,08,-4.80
2009,12,08,05,09,-4.90
2009,12,08,05,10,-4.90
2009,12,08,05,11,-5.00
2009,12,08,05,12,-5.00
2009,12,08,05,13,-5.00
2009,12,08,05,14,-5.00
2009,12,08,05,15,-5.00
2009,12,08,05,16,-5.00
2009,12,08,05,17,-5.00
2009,12,08,05,18,-5.00
2009,12,08,05,19,-5.00
2009,12,08,05,20,-5.00
2009,12,08,05,21,-5.00
2009,12,08,05,22,-5.00
2009,12,08,05,23,-5.00
2009,12,08,05,24,-4.90
2009,12,08,05,25,-4.90
2009,12,08,05,26,-4.90
2009,12,08,05,27,-4.90
2009,12,08,05,28,-4.90
2009,12,08,05,29,-4.80
2009,12,08,05,30,-4.80
2009,12,08,05,31,-4.80
2009,12,08,05,32,-4.80
2009,12,08,05,33,-4.80
2009,12,08,05,34,-4.80
2009,12,08,05,35,-4.70
2009,12,08,05,36,-4.70
2009,12,08,05,37,-4.70
2009,12,08,05,38,-4.70
2009,12,08,05,39,-4.70
2009,12,08,05,40,-4.70
2009,12,08,05,41,-4.60
2009,12,08,05,42,-4.60
2009,12,08,05,43,-4.60
2009,12,08,05,44,-4.60
2009,12,08,05,45,-4.50
2009,12,08,05,46,-4.50
2009,12,08,05,47,-4.50
2009,12,08,05,48,-4.50
2009,12,08,05,49,-4.60
2009,12,08,05,50,-4.60
2009,12,08,05,51,-4.60
2009,12,08,05,52,-4.60
2009,12,08,05,53,-4.60
2009,12,08,05,54,-4.70
2009,12,08,05,55,-4.70
2009,12,08,05,56,-4.70
2009,12,08,05,57,-4.70
2009,12,08,05,58,-4.70
2009,12,08,05,59,-4.60
2009,12,08,06,00,-4.60
2009,12,08,06,01,-4.60
2009,12,08,06,02,-4.60
2009,12,08,06,03,-4.60
2009,12,08,06,04,-4.50
2009,12,08,06,05,-4.50
2009,12,08,06,06,-4.50
2009,12,08,06,07,-4.50
2009,12,08,06,08,-4.50
2009,12,08,06,09,-4.50
2009,12,08,06,10,-4.50
2009,12,08,06,11,-4.40
2009,12,08,06,12,-4.40
2009,12,08,06,13,-4.40
2009,12,08,06,14,-4.40
2009,12,08,06,15,-4.40
2009,12,08,06,16,-4.40
2009,12,08,06,17,-4.30
2009,12,08,06,18,-4.30
2009,12,08,06,19,-4.30
2009,12,08,06,20,-4.30
2009,12,08,06,21,-4.30
2009,12,08,06,22,-4.30
2009,12,08,06,23,-4.30
2009,12,08,06,24,-4.30
2009,12,08,06,25,-4.30
2009,12,08,06,26,-4.30
2009,12,08,06,27,-4.20
2009,12,08,06,28,-4.20
2009,12,08,06,29,-4.20
2009,12,08,06,30,-4.20
2009,12,08,06,31,-4.20
2009,12,08,06,32,-4.20
2009,12,08,06,33,-4.20
2009,12,08,06,34,-4.20
2009,12,08,06,35,-4.20
2009,12,08,06,36,-4.20
2009,12,08,06,37,-4.20
2009,12,08,06,38,-4.20
2009,12,08,06,39,-4.20
2009,12,08,06,40,-4.20
2009,12,08,06,41,-4.20
2009,12,08,06,42,-4.30
2009,12,08,06,43,-4.30
2009,12,08,06,44,-4.30
2009,12,08,06,45,-4.30
2009,12,08,06,46,-4.30
2009,12,08,06,47,-4.30
2009,12,08,06,48,-4.30
2009,12,08,06,49,-4.40
2009,12,08,06,50,-4.40
2009,12,08,06,51,-4.40
2009,12,08,06,52,-4.40
2009,12,08,06,53,-4.50
2009,12,08,06,54,-4.50
2009,12,08,06,55,-4.50
2009,12,08,06,56,-4.60
2009,12,08,06,57,-4.60
2009,12,08,06,58,-4.70
2009,12,08,06,59,-4.70
2009,12,08,07,00,-4.70
2009,12,08,07,01,-4.70
2009,12,08,07,02,-4.70
2009,12,08,07,03,-4.80
2009,12,08,07,04,-4.80
2009,12,08,07,05,-4.80
2009,12,08,07,06,-4.90
2009,12,08,07,07,-4.90
2009,12,08,07,08,-5.00
2009,12,08,07,09,-5.00
2009,12,08,07,10,-5.00
2009,12,08,07,11,-5.00
2009,12,08,07,12,-5.10
2009,12,08,07,13,-5.10
2009,12,08,07,14,-5.20
2009,12,08,07,15,-5.20
2009,12,08,07,16,-5.30
2009,12,08,07,17,-5.30
2009,12,08,07,18,-5.30
2009,12,08,07,19,-5.30
2009,12,08,07,20,-5.40
2009,12,08,07,21,-5.40
2009,12,08,07,22,-5.50
2009,12,08,07,23,-5.50
2009,12,08,07,24,-5.50
2009,12,08,07,25,-5.50
2009,12,08,07,26,-5.60
2009,12,08,07,27,-5.60
2009,12,08,07,28,-5.60
2009,12,08,07,29,-5.60
2009,12,08,07,30,-5.60
2009,12,08,07,31,-5.60
2009,12,08,07,32,-5.70
2009,12,08,07,33,-5.70
2009,12,08,07,34,-5.70
2009,12,08,07,35,-5.70
2009,12,08,07,36,-5.80
2009,12,08,07,37,-5.80
2009,12,08,07,38,-5.80
2009,12,08,07,39,-5.90
2009,12,08,07,40,-5.90
2009,12,08,07,41,-5.90
2009,12,08,07,42,-5.90
2009,12,08,07,43,-5.90
2009,12,08,07,44,-6.00
2009,12,08,07,45,-6.10
2009,12,08,07,46,-6.10
2009,12,08,07,47,-6.10
2009,12,08,07,48,-6.10
2009,12,08,07,49,-6.10
2009,12,08,07,50,-6.10
2009,12,08,07,51,-6.10
2009,12,08,07,52,-6.10
2009,12,08,07,53,-6.10
2009,12,08,07,54,-6.20
2009,12,08,07,55,-6.20
2009,12,08,07,56,-6.20
2009,12,08,07,57,-6.20
2009,12,08,07,58,-6.20
2009,12,08,07,59,-6.20
2009,12,08,08,00,-6.30
2009,12,08,08,01,-6.30
2009,12,08,08,02,-6.30
2009,12,08,08,03,-6.30
2009,12,08,08,04,-6.30
2009,12,08,08,05,-6.20
2009,12,08,08,06,-6.20
2009,12,08,08,07,-6.20
2009,12,08,08,08,-6.20
2009,12,08,08,09,-6.20
2009,12,08,08,10,-6.20
2009,12,08,08,11,-6.10
2009,12,08,08,12,-6.10
2009,12,08,08,13,-6.10
2009,12,08,08,14,-6.10
2009,12,08,08,15,-6.10
2009,12,08,08,16,-6.10
2009,12,08,08,17,-6.10
2009,12,08,08,18,-6.10
2009,12,08,08,19,-6.10
2009,12,08,08,20,-6.10
2009,12,08,08,21,-6.10
2009,12,08,08,22,-6.10
2009,12,08,08,23,-6.10
2009,12,08,08,24,-6.10
2009,12,08,08,25,-6.10
2009,12,08,08,26,-6.10
2009,12,08,08,27,-6.10
2009,12,08,08,28,-6.10
2009,12,08,08,29,-6.10
2009,12,08,08,30,-6.10
2009,12,08,08,31,-6.10
2009,12,08,08,32,-6.10
2009,12,08,08,33,-6.10
2009,12,08,08,34,-6.10
2009,12,08,08,35,-6.10
2009,12,08,08,36,-6.10
2009,12,08,08,37,-6.10
2009,12,08,08,38,-6.10
2009,12,08,08,39,-6.10
2009,12,08,08,40,-6.10
2009,12,08,08,41,-6.10
2009,12,08,08,42,-6.10
2009,12,08,08,43,-6.10
2009,12,08,08,44,-6.10
2009,12,08,08,45,-6.10
2009,12,08,08,46,-6.10
2009,12,08,08,47,-6.10
2009,12,08,08,48,-6.00
2009,12,08,08,49,-5.90
2009,12,08,08,50,-5.90
2009,12,08,08,51,-5.90
2009,12,08,08,52,-5.90
2009,12,08,08,53,-5.90
2009,12,08,08,54,-5.80
2009,12,08,08,55,-5.70
2009,12,08,08,56,-5.70
2009,12,08,08,57,-5.70
2009,12,08,08,58,-5.70
2009,12,08,08,59,-5.60
2009,12,08,09,00,-5.60
2009,12,08,09,01,-5.60
2009,12,08,09,02,-5.50
2009,12,08,09,03,-5.50
2009,12,08,09,04,-5.50
2009,12,08,09,05,-5.50
2009,12,08,09,06,-5.50
2009,12,08,09,07,-5.50
2009,12,08,09,08,-5.40
2009,12,08,09,09,-5.40
2009,12,08,09,10,-5.40
2009,12,08,09,11,-5.40
2009,12,08,09,12,-5.30
2009,12,08,09,13,-5.30
2009,12,08,09,14,-5.30
2009,12,08,09,15,-5.30
2009,12,08,09,16,-5.30
2009,12,08,09,17,-5.30
2009,12,08,09,18,-5.30
2009,12,08,09,19,-5.30
2009,12,08,09,20,-5.30
2009,12,08,09,21,-5.30
2009,12,08,09,22,-5.30
2009,12,08,09,23,-5.30
2009,12,08,09,24,-5.30
2009,12,08,09,25,-5.30
2009,12,08,09,26,-5.30
2009,12,08,09,27,-5.30
2009,12,08,09,28,-5.20
2009,12,08,09,29,-5.20
2009,12,08,09,30,-5.20
2009,12,08,09,31,-5.10
2009,12,08,09,32,-5.10
2009,12,08,09,33,-5.00
2009,12,08,09,34,-5.00
2009,12,08,09,35,-4.90
2009,12,08,09,36,-4.90
2009,12,08,09,37,-4.90
2009,12,08,09,38,-4.80
2009,12,08,09,39,-4.70
2009,12,08,09,40,-4.60
2009,12,08,09,41,-4.60
2009,12,08,09,42,-4.50
2009,12,08,09,43,-4.40
2009,12,08,09,44,-4.30
2009,12,08,09,45,-4.20
2009,12,08,09,46,-4.20
2009,12,08,09,47,-4.10
2009,12,08,09,48,-4.10
2009,12,08,09,49,-4.10
2009,12,08,09,50,-4.10
2009,12,08,09,51,-4.10
2009,12,08,09,52,-4.10
2009,12,08,09,53,-4.10
2009,12,08,09,54,-4.10
2009,12,08,09,55,-4.10
2009,12,08,09,56,-4.00
2009,12,08,09,57,-3.90
2009,12,08,09,58,-3.90
2009,12,08,09,59,-3.80
2009,12,08,10,00,-3.80
2009,12,08,10,01,-3.70
2009,12,08,10,02,-3.60
2009,12,08,10,03,-3.60
2009,12,08,10,04,-3.50
2009,12,08,10,05,-3.50
2009,12,08,10,06,-3.40
2009,12,08,10,07,-3.40
2009,12,08,10,08,-3.40
2009,12,08,10,09,-3.30
2009,12,08,10,10,-3.30
2009,12,08,10,11,-3.30
2009,12,08,10,12,-3.30
2009,12,08,10,13,-3.30
2009,12,08,10,14,-3.20
2009,12,08,10,15,-3.20
2009,12,08,10,16,-3.10
2009,12,08,10,17,-3.10
2009,12,08,10,18,-3.10
2009,12,08,10,19,-3.00
2009,12,08,10,20,-3.00
2009,12,08,10,21,-3.00
2009,12,08,10,22,-2.90
2009,12,08,10,23,-2.80
2009,12,08,10,24,-2.80
2009,12,08,10,25,-2.70
2009,12,08,10,26,-2.70
2009,12,08,10,27,-2.60
2009,12,08,10,28,-2.60
2009,12,08,10,29,-2.50
2009,12,08,10,34,-2.30
2009,12,08,10,35,-2.30
2009,12,08,10,36,-2.30
2009,12,08,10,37,-2.20
2009,12,08,10,38,-2.20
2009,12,08,10,39,-2.10
2009,12,08,10,40,-2.10
2009,12,08,10,41,-2.00
2009,12,08,10,42,-2.00
2009,12,08,10,43,-1.90
2009,12,08,10,44,-1.80
2009,12,08,10,45,-1.80
2009,12,08,10,46,-1.80
2009,12,08,10,47,-1.80
2009,12,08,10,48,-1.70
2009,12,08,10,49,-1.70
2009,12,08,10,50,-1.70
2009,12,08,10,51,-1.70
2009,12,08,10,52,-1.70
2009,12,08,10,53,-1.70
2009,12,08,10,54,-1.70
2009,12,08,10,55,-1.60
2009,12,08,10,56,-1.60
2009,12,08,10,57,-1.60
2009,12,08,10,58,-1.60
2009,12,08,10,59,-1.50
2009,12,08,11,00,-1.50
2009,12,08,11,01,-1.50
2009,12,08,11,02,-1.40
2009,12,08,11,03,-1.40
2009,12,08,11,04,-1.40
2009,12,08,11,05,-1.40
2009,12,08,11,36,-0.90
2009,12,08,11,37,-0.90
2009,12,08,11,38,-0.90
2009,12,08,11,39,-0.90
2009,12,08,11,40,-0.90
2009,12,08,11,41,-0.90
2009,12,08,11,42,-0.90
2009,12,08,11,43,-0.90
2009,12,08,11,44,-0.90
2009,12,08,11,45,-0.90
2009,12,08,11,46,-0.90
2009,12,08,11,47,-0.90
2009,12,08,11,48,-0.90
2009,12,08,11,49,-0.90
2009,12,08,11,50,-0.80
2009,12,08,11,51,-0.80
2009,12,08,11,52,-0.80
2009,12,08,11,53,-0.80
2009,12,08,11,54,-0.80
2009,12,08,11,55,-0.80
2009,12,08,11,56,-0.70
2009,12,08,11,57,-0.70
2009,12,08,11,58,-0.70
2009,12,08,11,59,-0.70
2009,12,08,12,00,-0.70
2009,12,08,12,01,-0.70
2009,12,08,12,02,-0.70
2009,12,08,12,03,-0.70
2009,12,08,12,04,-0.70
2009,12,08,12,05,-0.70
2009,12,08,12,06,-0.60
2009,12,08,12,07,-0.60
2009,12,08,12,08,-0.60
2009,12,08,12,09,-0.60
2009,12,08,12,10,-0.60
2009,12,08,12,11,-0.60
2009,12,08,12,12,-0.60
2009,12,08,12,13,-0.60
2009,12,08,12,14,-0.60
2009,12,08,12,15,-0.60
2009,12,08,12,16,-0.60
2009,12,08,12,17,-0.60
2009,12,08,12,18,-0.60
2009,12,08,12,19,-0.60
2009,12,08,12,20,-0.60
2009,12,08,12,21,-0.60
2009,12,08,12,22,-0.60
2009,12,08,12,23,-0.60
2009,12,08,12,24,-0.70
2009,12,08,12,25,-0.70
2009,12,08,12,26,-0.70
2009,12,08,12,27,-0.70
2009,12,08,12,28,-0.60
2009,12,08,12,29,-0.60
2009,12,08,12,30,-0.60
2009,12,08,12,31,-0.60
2009,12,08,12,32,-0.60
2009,12,08,12,33,-0.60
2009,12,08,12,34,-0.60
2009,12,08,12,35,-0.60
2009,12,08,12,36,-0.60
2009,12,08,12,37,-0.60
2009,12,08,12,38,-0.50
2009,12,08,12,39,-0.40
2009,12,08,12,40,-0.40
2009,12,08,12,41,-0.40
2009,12,08,12,42,-0.40
2009,12,08,12,43,-0.40
2009,12,08,12,44,-0.30
2009,12,08,12,45,-0.30
2009,12,08,12,46,-0.30
2009,12,08,12,47,-0.30
2009,12,08,12,48,-0.30
2009,12,08,12,49,-0.40
2009,12,08,12,50,-0.30
2009,12,08,12,51,-0.30
2009,12,08,12,52,-0.40
2009,12,08,12,53,-0.40
2009,12,08,12,54,-0.40
2009,12,08,12,55,-0.40
2009,12,08,12,56,-0.40
2009,12,08,12,57,-0.40
2009,12,08,12,58,-0.40
2009,12,08,12,59,-0.40
2009,12,08,13,00,-0.40
2009,12,08,13,01,-0.40
2009,12,08,13,02,-0.40
2009,12,08,13,03,-0.40
2009,12,08,13,04,-0.40
2009,12,08,13,05,-0.40
2009,12,08,13,06,-0.30
2009,12,08,13,07,-0.30
2009,12,08,13,08,-0.30
2009,12,08,13,09,-0.30
2009,12,08,13,10,-0.30
2009,12,08,13,11,-0.30
2009,12,08,13,12,-0.30
2009,12,08,13,13,-0.30
2009,12,08,13,14,-0.30
2009,12,08,13,15,-0.30
2009,12,08,13,16,-0.30
2009,12,08,13,17,-0.30
2009,12,08,13,18,-0.30
2009,12,08,13,19,-0.30
2009,12,08,13,20,-0.30
2009,12,08,13,21,-0.30
2009,12,08,13,22,-0.30
2009,12,08,13,23,-0.30
2009,12,08,13,24,-0.30
2009,12,08,13,25,-0.20
2009,12,08,13,26,-0.20
2009,12,08,13,27,-0.20
2009,12,08,13,28,-0.20
2009,12,08,13,29,-0.30
2009,12,08,13,30,-0.30
2009,12,08,13,31,-0.30
2009,12,08,13,32,-0.30
2009,12,08,13,33,-0.30
2009,12,08,13,34,-0.30
2009,12,08,13,35,-0.30
2009,12,08,13,36,-0.40
2009,12,08,13,37,-0.40
2009,12,08,13,38,-0.40
2009,12,08,13,39,-0.50
2009,12,08,13,40,-0.60
2009,12,08,13,41,-0.60
2009,12,08,13,42,-0.60
2009,12,08,13,43,-0.70
2009,12,08,13,44,-0.80
2009,12,08,13,45,-0.80
2009,12,08,13,46,-0.90
2009,12,08,13,47,-0.90
2009,12,08,13,48,-0.90
2009,12,08,13,49,-0.90
2009,12,08,13,50,-1.00
2009,12,08,13,51,-1.10
2009,12,08,13,52,-1.10
2009,12,08,13,53,-1.10
2009,12,08,13,54,-1.10
2009,12,08,13,55,-1.10
2009,12,08,13,56,-1.20
2009,12,08,13,57,-1.20
2009,12,08,13,58,-1.20
2009,12,08,13,59,-1.20
2009,12,08,14,00,-1.30
2009,12,08,14,01,-1.30
2009,12,08,14,02,-1.40
2009,12,08,14,03,-1.40
2009,12,08,14,04,-1.40
2009,12,08,14,05,-1.40
2009,12,08,14,06,-1.40
2009,12,08,14,07,-1.40
2009,12,08,14,08,-1.40
2009,12,08,14,09,-1.40
2009,12,08,14,10,-1.40
2009,12,08,14,11,-1.40
2009,12,08,14,12,-1.40
2009,12,08,14,13,-1.50
2009,12,08,14,14,-1.50
2009,12,08,14,15,-1.50
2009,12,08,14,16,-1.50
2009,12,08,14,17,-1.50
2009,12,08,14,18,-1.50
2009,12,08,14,19,-1.50
2009,12,08,14,20,-1.50
2009,12,08,14,21,-1.60
2009,12,08,14,22,-1.60
2009,12,08,14,23,-1.60
2009,12,08,14,24,-1.60
2009,12,08,14,25,-1.70
2009,12,08,14,26,-1.70
2009,12,08,14,27,-1.70
2009,12,08,14,28,-1.70
2009,12,08,14,29,-1.70
2009,12,08,14,30,-1.70
2009,12,08,14,31,-1.70
2009,12,08,14,32,-1.80
2009,12,08,14,33,-1.80
2009,12,08,14,34,-1.80
2009,12,08,14,35,-1.80
2009,12,08,14,36,-1.80
2009,12,08,14,37,-1.80
2009,12,08,14,38,-1.80
2009,12,08,14,39,-1.80
2009,12,08,14,40,-1.80
2009,12,08,14,41,-1.80
2009,12,08,14,42,-1.80
2009,12,08,14,43,-1.80
2009,12,08,14,44,-1.80
2009,12,08,14,45,-1.80
2009,12,08,14,46,-1.90
2009,12,08,14,47,-1.90
2009,12,08,14,48,-1.90
2009,12,08,14,49,-1.90
2009,12,08,14,50,-1.90
2009,12,08,14,51,-1.90
2009,12,08,14,52,-1.90
2009,12,08,14,53,-1.90
2009,12,08,14,54,-1.90
2009,12,08,14,55,-1.90
2009,12,08,14,56,-1.90
2009,12,08,14,57,-1.90
2009,12,08,14,58,-1.90
2009,12,08,14,59,-2.00
2009,12,08,15,00,-2.00
2009,12,08,15,01,-2.00
2009,12,08,15,02,-2.00
2009,12,08,15,03,-2.00
2009,12,08,15,04,-2.00
2009,12,08,15,05,-2.00
2009,12,08,15,06,-2.10
2009,12,08,15,07,-2.10
2009,12,08,15,08,-2.10
2009,12,08,15,09,-2.10
2009,12,08,15,10,-2.10
2009,12,08,15,11,-2.10
2009,12,08,15,12,-2.20
2009,12,08,15,13,-2.20
2009,12,08,15,14,-2.20
2009,12,08,15,15,-2.20
2009,12,08,15,16,-2.20
2009,12,08,15,17,-2.30
2009,12,08,15,18,-2.30
2009,12,08,15,19,-2.30
2009,12,08,15,20,-2.30
2009,12,08,15,21,-2.30
2009,12,08,15,22,-2.30
2009,12,08,15,23,-2.30
2009,12,08,15,24,-2.30
2009,12,08,15,25,-2.30
2009,12,08,15,26,-2.40
2009,12,08,15,27,-2.40
2009,12,08,15,28,-2.40
2009,12,08,15,29,-2.40
2009,12,08,15,30,-2.40
2009,12,08,15,31,-2.50
2009,12,08,15,32,-2.50
2009,12,08,15,33,-2.50
2009,12,08,15,34,-2.50
2009,12,08,15,35,-2.50
2009,12,08,15,36,-2.60
2009,12,08,15,37,-2.60
2009,12,08,15,38,-2.60
2009,12,08,15,39,-2.60
2009,12,08,15,40,-2.60
2009,12,08,15,41,-2.60
2009,12,08,15,42,-2.70
2009,12,08,15,43,-2.70
2009,12,08,15,44,-2.70
2009,12,08,15,45,-2.70
2009,12,08,15,46,-2.70
2009,12,08,15,47,-2.70
2009,12,08,15,48,-2.80
2009,12,08,15,49,-2.80
2009,12,08,15,50,-2.80
2009,12,08,15,51,-2.80
2009,12,08,15,52,-2.80
2009,12,08,15,53,-2.80
2009,12,08,15,54,-2.80
2009,12,08,15,55,-2.80
2009,12,08,15,56,-2.80
2009,12,08,15,57,-2.90
2009,12,08,15,58,-2.90
2009,12,08,15,59,-2.90
2009,12,08,16,00,-2.90
2009,12,08,16,01,-2.90
2009,12,08,16,02,-3.00
2009,12,08,16,03,-3.00
2009,12,08,16,04,-3.00
2009,12,08,16,05,-3.00
2009,12,08,16,06,-3.10
2009,12,08,16,07,-3.10
2009,12,08,16,08,-3.10
2009,12,08,16,09,-3.20
2009,12,08,16,10,-3.20
2009,12,08,16,11,-3.20
2009,12,08,16,12,-3.20
2009,12,08,16,13,-3.30
2009,12,08,16,14,-3.30
2009,12,08,16,15,-3.30
2009,12,08,16,16,-3.30
2009,12,08,16,17,-3.30
2009,12,08,16,18,-3.30
2009,12,08,16,19,-3.40
2009,12,08,16,20,-3.40
2009,12,08,16,21,-3.50
2009,12,08,16,22,-3.50
2009,12,08,16,23,-3.50
2009,12,08,16,24,-3.60
2009,12,08,16,25,-3.60
2009,12,08,16,26,-3.70
2009,12,08,16,27,-3.70
2009,12,08,16,28,-3.70
2009,12,08,16,29,-3.70
2009,12,08,16,30,-3.70
2009,12,08,16,31,-3.80
2009,12,08,16,32,-3.80
2009,12,08,16,33,-3.80
2009,12,08,16,34,-3.90
2009,12,08,16,35,-3.90
2009,12,08,16,36,-3.90
2009,12,08,16,37,-3.90
2009,12,08,16,38,-4.00
2009,12,08,16,39,-4.00
2009,12,08,16,40,-4.00
2009,12,08,16,41,-4.00
2009,12,08,16,42,-4.10
2009,12,08,16,43,-4.10
2009,12,08,16,44,-4.10
2009,12,08,16,45,-4.10
2009,12,08,16,46,-4.20
2009,12,08,16,47,-4.20
2009,12,08,16,48,-4.20
2009,12,08,16,49,-4.20
2009,12,08,16,50,-4.30
2009,12,08,16,51,-4.30
2009,12,08,16,52,-4.40
2009,12,08,16,53,-4.40
2009,12,08,16,54,-4.40
2009,12,08,16,55,-4.40
2009,12,08,16,56,-4.50
2009,12,08,16,57,-4.50
2009,12,08,16,58,-4.50
2009,12,08,16,59,-4.60
2009,12,08,17,00,-4.60
2009,12,08,17,01,-4.60
2009,12,08,17,02,-4.60
2009,12,08,17,03,-4.70
2009,12,08,17,04,-4.70
2009,12,08,17,05,-4.70
2009,12,08,17,06,-4.70
2009,12,08,17,07,-4.70
2009,12,08,17,08,-4.70
2009,12,08,17,09,-4.70
2009,12,08,17,10,-4.70
2009,12,08,17,11,-4.80
2009,12,08,17,12,-4.80
2009,12,08,17,13,-4.80
2009,12,08,17,14,-4.80
2009,12,08,17,15,-4.80
2009,12,08,17,16,-4.80
2009,12,08,17,17,-4.80
2009,12,08,17,18,-4.90
2009,12,08,17,19,-4.90
2009,12,08,17,20,-4.90
2009,12,08,17,21,-4.90
2009,12,08,17,22,-4.90
2009,12,08,17,23,-4.90
2009,12,08,17,24,-5.00
2009,12,08,17,25,-5.00
2009,12,08,17,26,-5.00
2009,12,08,17,27,-5.00
2009,12,08,17,28,-5.10
2009,12,08,17,29,-5.10
2009,12,08,17,30,-5.10
2009,12,08,17,31,-5.20
2009,12,08,17,32,-5.20
2009,12,08,17,33,-5.20
2009,12,08,17,34,-5.30
2009,12,08,17,35,-5.30
2009,12,08,17,36,-5.30
2009,12,08,17,37,-5.30
2009,12,08,17,38,-5.30
2009,12,08,17,39,-5.30
2009,12,08,17,40,-5.30
2009,12,08,17,41,-5.40
2009,12,08,17,42,-5.40
2009,12,08,17,43,-5.40
2009,12,08,17,44,-5.40
2009,12,08,17,45,-5.50
2009,12,08,17,46,-5.50
2009,12,08,17,47,-5.50
2009,12,08,17,48,-5.50
2009,12,08,17,49,-5.50
2009,12,08,17,50,-5.50
2009,12,08,17,51,-5.50
2009,12,08,17,52,-5.50
2009,12,08,17,53,-5.40